Regional Weather Roundup
Issued by NWS Little Rock, AR

Home | Current Version | Previous Version | Graphics & Text | Print | Product List | Glossary On
Versions: 1 2 3 4 5 6 7 8 9 10 11 12 13 14 15 16 17 18 19 20 21 22 23 24 25 26 27 28 29 30 31 32 33
000
ASUS44 KLZK 242205
RWRLZK

WEATHER ROUNDUP FOR ARKANSAS
NATIONAL WEATHER SERVICE LITTLE ROCK AR
500 PM CDT SAT SEP 24 2016

NOTE: "FAIR" INDICATES FEW OR NO CLOUDS BELOW 12,000 FEET WITH NO
SIGNIFICANT WEATHER AND/OR OBSTRUCTIONS TO VISIBILITY.

ARZ001-003-010-029-242300-
NORTHWEST ARKANSAS

CITY           SKY/WX    TMP DP  RH WIND       PRES   REMARKS
FAYETTEVILLE   SUNNY     85  69  58 SE10      29.99F HX  89
FORT SMITH     MOSUNNY   90  64  42 S12G17    29.95F HX  91
HARRISON       SUNNY     87  66  49 S10       30.02F HX  89
BENTONVILLE    MOSUNNY   90  64  43 S8        30.00F HX  91
ROGERS         MOSUNNY   87  69  54 SE10      30.00F HX  91
SILOAM SPGS    SUNNY     90  63  40 S12         N/A  HX  90
HIGHFILL       SUNNY     88  69  53 SE13      29.98F HX  92
SPRINGDALE     MOSUNNY   88  68  51 S13       30.01F HX  91
$$

ARZ004-005-016-242300-
NORTH CENTRAL ARKANSAS

CITY           SKY/WX    TMP DP  RH WIND       PRES   REMARKS
BATESVILLE     SUNNY     91  66  43 S6        30.00S HX  94
FLIPPIN        MOSUNNY   88  66  48 SE6       29.98F HX  90
MTN HOME       MOSUNNY   87  68  52 S6        30.00F HX  90
$$

ARZ040-041-242300-
WEST CENTRAL ARKANSAS

CITY           SKY/WX    TMP DP  RH WIND       PRES   REMARKS
MENA           SUNNY     90  68  48 SE3       30.01S HX  93
MOUNT IDA      SUNNY     88  67  49 MISG      29.98F HX  91
$$

ARZ009-017-025-026-028-242300-
NORTHEAST ARKANSAS

CITY           SKY/WX    TMP DP  RH WIND       PRES   REMARKS
CORNING          N/A     91  70  49 CALM      30.00F HX  97
JONESBORO      CLOUDY    94  65  38 CALM      29.99F HX  96
NEWPORT        SUNNY     92  66  42 SW5       29.99F HX  94
WALNUT RIDGE   SUNNY     91  64  40 SW3       29.98F HX  93
BLYTHEVILLE    SUNNY     94  64  37 SE5       30.00F HX  95
$$

ARZ022-023-033-042-044-242300-
CENTRAL ARKANSAS

CITY           SKY/WX    TMP DP  RH WIND       PRES   REMARKS
LITTLE ROCK    MOSUNNY   93  65  39 S8        29.99F HX  95
N LITTLE ROCK    N/A     91  67  44 SW5       29.96F HX  94
JACKSONVILLE   SUNNY     93  66  40 VRB5      29.98F HX  95
SEARCY         SUNNY     91  71  51 SW3       30.00F HX  97
HOT SPRINGS    SUNNY     89  68  49 SW5       29.99F HX  93
RUSSELLVILLE   SUNNY     90  67  46 S3        29.97F HX  93
$$

ARZ036-242300-
EAST ARKANSAS

CITY           SKY/WX    TMP DP  RH WIND       PRES   REMARKS
WEST MEMPHIS   SUNNY     94  59  31 SE7       29.97F HX  93
$$

ARZ050-053-066-070-073-242300-
SOUTHWEST ARKANSAS

CITY           SKY/WX    TMP DP  RH WIND       PRES   REMARKS
ARKADELPHIA    FAIR      89  71  55 S7        29.98F HX  95
TEXARKANA      SUNNY     91  65  41 S10       29.97F HX  93
EL DORADO      SUNNY     90  68  48 S7        29.99F HAZE    HX  94
DE QUEEN       SUNNY     90  68  48 S8        29.95F HX  94
$$

ARZ056-057-069-242300-
SOUTHEAST ARKANSAS

CITY           SKY/WX    TMP DP  RH WIND       PRES   REMARKS
PINE BLUFF     SUNNY     91  65  41 SW5       29.98F HX  93
STUTTGART      MOSUNNY   90  66  45 SE8       30.00S HX  92
MONTICELLO     SUNNY     92  67  43 S7        29.99F HX  95

$$






USA.gov is the U.S. government's official web portal to all federal, state and local government web resources and services.